Torna al catalogo

STARLINK-32137

AttivoComunicazioniVLEO
NORAD 60155·PAYLOAD·🇺🇸 United States

Lanciato Jun 27, 2024 da Cape Canaveral Space Force Station

Loading…

Prossimi Passaggi (prossime 24 ore)

TLE

AggiornatoSource: CelesTrak SupGP

Epoca: Sep 14, 2026, 21:21 UTC

1 60155C 24120W   26257.89006944 -.00043198  00000+0 -12758-2 0  2576
2 60155  53.1580 157.8915 0001370  89.9502 101.1422 15.34424712    16

Traccia STARLINK-32137 in tempo reale con AllMySat

Download on the App Store